Regional Weather Roundup
Issued by NWS

Home | Current Version | Previous Version | Graphics & Text | Print | Product List | Glossary On
Versions: 1 2 3 4 5 6 7 8 9 10 11 12 13 14 15 16 17 18 19 20 21 22 23 24 25 26 27 28 29 30 31 32 33 34 35 36 37 38 39 40 41 42 43 44 45 46 47 48 49 50
000
ASUS45 KBOI 211910
RWRID

IDAHO REGIONAL WEATHER ROUNDUP
NATIONAL WEATHER SERVICE BOISE ID
100 PM MDT MON MAY 21 2018

NOTE: "FAIR" INDICATES FEW OR NO CLOUDS BELOW 12000 FEET
WITH NO SIGNIFICANT WEATHER AND/OR OBSTRUCTIONS TO VISIBILITY

IDZ012-014-212000-
SOUTHWEST IDAHO


CITY           SKY/WX    TMP DP  RH WIND       PRES   REMARKS
BOISE          SUNNY     70  54  56 NW8       29.93F
CALDWELL       MOSUNNY   72  54  53 N8        29.93F
MOUNTAIN HOME  MOSUNNY   70  53  56 NW5       29.94F
$$

IDZ016-017-212000-
SOUTHCENTRAL IDAHO


CITY           SKY/WX    TMP DP  RH WIND       PRES   REMARKS
BURLEY         SUNNY     70  50  49 N6        29.94F
JEROME         SUNNY     66  52  60 VRB3      29.97F
TWIN FALLS     MOSUNNY   67  52  58 NE3       29.96F
$$

IDZ019>023-212000-
SOUTHEAST IDAHO


CITY           SKY/WX    TMP DP  RH WIND       PRES   REMARKS
IDAHO FALLS    PTSUNNY   67  48  50 CALM      29.98F
POCATELLO      MOSUNNY   69  53  56 NW8       29.96F
REXBURG        MOSUNNY   68  42  38 VRB3      29.97F
$$

IDZ006-010-011-018-031-032-212000-
CENTRAL IDAHO MOUNTAINS


CITY           SKY/WX    TMP DP  RH WIND       PRES   REMARKS
MCCALL         CLOUDY    60  45  57 NW5       29.98F
HAILEY         MOSUNNY   64  48  55 SE12G18   30.00F
STANLEY          N/A     61  43  51 VRB5      30.03F
SALMON         PTSUNNY   63  50  62 NW6       29.98F
CHALLIS        MOSUNNY   67  45  45 CALM      29.97F
$$

IDZ002-004-006-007-026-212000-
NORTHERN IDAHO


CITY           SKY/WX    TMP DP  RH WIND       PRES   REMARKS
LEWISTON       MOSUNNY   72  51  47 CALM      29.95F
LOWELL           N/A     67  58  72 S7        29.94F
COEUR D`ALENE  SUNNY     71  52  50 VRB7      29.96S
MULLAN PASS    CLOUDY    57  46  66 CALM      30.06S
$$



USA.gov is the U.S. government's official web portal to all federal, state and local government web resources and services.